time, beta470, beta532, beta650
yyyy/mm/dd HH:MM:SS.fff, counts, counts, counts
2023/06/17 07:00:02.598, 110, 131, 97
2023/06/17 07:00:03.718, 112, 128, 107
2023/06/17 07:00:04.854, 115, 139, 92
2023/06/17 07:00:05.974, 112, 136, 95
2023/06/17 07:00:07.109, 112, 135, 104
2023/06/17 07:00:08.246, 113, 132, 93
2023/06/17 07:00:09.365, 111, 134, 93
2023/06/17 07:00:10.502, 107, 137, 97
2023/06/17 07:00:11.638, 108, 130, 94
2023/06/17 07:00:12.758, 116, 133, 95
2023/06/17 07:00:13.893, 112, 155, 93
2023/06/17 07:00:15.029, 111, 144, 97
2023/06/17 07:00:16.149, 114, 163, 97
2023/06/17 07:00:17.285, 124, 142, 97
2023/06/17 07:00:18.405, 122, 152, 106
2023/06/17 07:00:19.541, 117, 135, 105
2023/06/17 07:00:20.677, 116, 142, 94
2023/06/17 07:00:21.797, 115, 135, 100
2023/06/17 07:00:22.933, 120, 158, 104
2023/06/17 07:00:24.069, 119, 151, 99
2023/06/17 07:00:25.189, 117, 144, 104
2023/06/17 07:00:26.325, 117, 156, 100
2023/06/17 07:00:27.461, 119, 144, 110
2023/06/17 07:00:28.581, 116, 145, 105
2023/06/17 07:00:29.717, 119, 147, 104
2023/06/17 07:00:30.852, 119, 142, 107
2023/06/17 07:00:31.972, 123, 151, 102
2023/06/17 07:00:33.108, 120, 151, 115
2023/06/17 07:00:34.244, 123, 155, 104
2023/06/17 07:00:35.364, 121, 145, 102
2023/06/17 07:00:36.500, 123, 149, 102
2023/06/17 07:00:37.636, 117, 179, 106
2023/06/17 07:00:38.756, 118, 141, 103
2023/06/17 07:00:39.892, 118, 139, 97
2023/06/17 07:00:41.028, 118, 138, 100
2023/06/17 07:00:42.147, 121, 151, 103
2023/06/17 07:00:43.283, 119, 172, 102
2023/06/17 07:00:44.420, 122, 135, 105
2023/06/17 07:00:45.540, 130, 141, 99
2023/06/17 07:00:46.675, 123, 144, 102
2023/06/17 07:00:47.811, 117, 147, 113
2023/06/17 07:00:48.931, 117, 135, 99
2023/06/17 07:00:50.067, 122, 137, 94
2023/06/17 07:00:51.187, 122, 135, 94
2023/06/17 07:00:52.323, 118, 140, 99
2023/06/17 07:00:53.458, 114, 128, 105
2023/06/17 07:00:54.579, 114, 132, 99
2023/06/17 07:00:55.715, 115, 137, 107
2023/06/17 07:00:56.850, 110, 148, 98
2023/06/17 07:00:57.971, 109, 127, 93
2023/06/17 07:00:59.106, 110, 140, 88
2023/06/17 07:01:00.243, 111, 138, 94
2023/06/17 07:01:01.362, 110, 128, 89
2023/06/17 07:01:02.498, 110, 132, 90
2023/06/17 07:01:03.618, 111, 129, 90
2023/06/17 07:01:04.754, 116, 130, 89
2023/06/17 07:01:05.890, 108, 129, 90
2023/06/17 07:01:07.010, 111, 129, 89
2023/06/17 07:01:08.146, 115, 126, 88
2023/06/17 07:01:09.282, 108, 128, 85
2023/06/17 07:01:10.402, 108, 121, 88
2023/06/17 07:01:11.538, 110, 128, 84
2023/06/17 07:01:12.658, 107, 131, 84
2023/06/17 07:01:13.794, 115, 130, 84
2023/06/17 07:01:14.930, 104, 120, 87
2023/06/17 07:01:16.049, 108, 127, 90
2023/06/17 07:01:17.186, 106, 124, 87
2023/06/17 07:01:18.321, 107, 125, 89
2023/06/17 07:01:19.441, 110, 121, 89
2023/06/17 07:01:20.577, 109, 119, 90
2023/06/17 07:01:21.697, 105, 127, 99
2023/06/17 07:01:22.833, 117, 121, 105
2023/06/17 07:01:23.969, 108, 120, 97
2023/06/17 07:01:25.089, 107, 123, 92
2023/06/17 07:01:26.225, 108, 116, 101
2023/06/17 07:01:27.360, 108, 123, 96
2023/06/17 07:01:28.481, 105, 120, 94
2023/06/17 07:01:29.617, 112, 123, 95
2023/06/17 07:01:30.737, 107, 122, 101
2023/06/17 07:01:31.873, 101, 120, 101
2023/06/17 07:01:33.009, 103, 116, 102
2023/06/17 07:01:34.128, 104, 114, 99
2023/06/17 07:01:35.264, 107, 113, 91
2023/06/17 07:01:36.400, 104, 117, 80
2023/06/17 07:01:37.520, 104, 115, 85
2023/06/17 07:01:38.656, 103, 119, 82
2023/06/17 07:01:39.776, 106, 118, 82
2023/06/17 07:01:40.912, 107, 117, 81
2023/06/17 07:01:42.048, 103, 110, 83
2023/06/17 07:01:43.168, 104, 115, 84
2023/06/17 07:01:44.304, 102, 113, 85
2023/06/17 07:01:45.440, 103, 111, 84
2023/06/17 07:01:46.560, 104, 112, 81
2023/06/17 07:01:47.696, 102, 111, 81
2023/06/17 07:01:48.816, 100, 117, 80
2023/06/17 07:01:49.952, 102, 109, 76
2023/06/17 07:01:51.087, 100, 117, 79
2023/06/17 07:01:52.207, 97, 118, 80
2023/06/17 07:01:53.343, 103, 115, 81
2023/06/17 07:01:54.479, 102, 110, 79
2023/06/17 07:01:55.599, 102, 112, 83
2023/06/17 07:01:56.736, 100, 111, 74
2023/06/17 07:01:57.854, 101, 114, 81
2023/06/17 07:01:58.991, 102, 109, 78
2023/06/17 07:02:00.127, 101, 111, 76
2023/06/17 07:02:01.247, 102, 114, 83
2023/06/17 07:02:02.382, 103, 112, 81
2023/06/17 07:02:03.503, 96, 107, 79
2023/06/17 07:02:04.638, 98, 110, 76
2023/06/17 07:02:05.775, 98, 121, 83
2023/06/17 07:02:06.894, 98, 111, 80
2023/06/17 07:02:08.030, 99, 111, 80
2023/06/17 07:02:09.150, 101, 110, 79
2023/06/17 07:02:10.286, 97, 109, 79
2023/06/17 07:02:11.422, 94, 111, 76
2023/06/17 07:02:12.542, 97, 112, 80
2023/06/17 07:02:13.678, 97, 108, 76
2023/06/17 07:02:14.798, 98, 111, 80
2023/06/17 07:02:15.934, 98, 111, 76
2023/06/17 07:02:17.054, 96, 109, 83
2023/06/17 07:02:18.190, 98, 104, 80
2023/06/17 07:02:19.326, 98, 109, 79
2023/06/17 07:02:20.446, 106, 105, 83
2023/06/17 07:02:21.582, 95, 107, 83
2023/06/17 07:02:22.701, 98, 105, 81
2023/06/17 07:02:23.837, 98, 108, 82
2023/06/17 07:02:24.957, 95, 106, 83
2023/06/17 07:02:26.093, 95, 105, 81
2023/06/17 07:02:27.229, 95, 103, 80
2023/06/17 07:02:28.349, 96, 104, 80
2023/06/17 07:02:29.485, 95, 105, 77
2023/06/17 07:02:30.605, 105, 106, 76
2023/06/17 07:02:31.741, 95, 106, 83
2023/06/17 07:02:32.861, 97, 102, 79
2023/06/17 07:02:33.997, 99, 98, 80
2023/06/17 07:02:35.117, 96, 113, 75
2023/06/17 07:02:36.253, 100, 102, 80
2023/06/17 07:02:37.389, 97, 113, 79
2023/06/17 07:02:38.508, 96, 108, 80
2023/06/17 07:02:39.645, 96, 100, 81
2023/06/17 07:02:40.764, 97, 100, 77
2023/06/17 07:02:41.900, 98, 100, 81
2023/06/17 07:02:43.036, 95, 102, 77
2023/06/17 07:02:44.156, 96, 103, 81
2023/06/17 07:02:45.292, 93, 102, 77
2023/06/17 07:02:46.412, 93, 101, 79
2023/06/17 07:02:47.548, 97, 111, 81
2023/06/17 07:02:48.668, 96, 103, 77
2023/06/17 07:02:49.804, 92, 103, 74
2023/06/17 07:02:50.940, 94, 107, 78
2023/06/17 07:02:52.060, 96, 110, 79
2023/06/17 07:02:53.196, 93, 99, 78
2023/06/17 07:02:54.316, 97, 110, 74
2023/06/17 07:02:55.451, 95, 103, 78
2023/06/17 07:02:56.571, 95, 104, 81
2023/06/17 07:02:57.707, 93, 100, 81
2023/06/17 07:02:58.843, 94, 100, 83
2023/06/17 07:02:59.963, 94, 103, 81
2023/06/17 07:03:01.099, 94, 100, 80
2023/06/17 07:03:02.219, 92, 102, 79
2023/06/17 07:03:03.355, 96, 94, 77
2023/06/17 07:03:04.475, 94, 104, 80
2023/06/17 07:03:05.611, 95, 103, 77
2023/06/17 07:03:06.731, 94, 96, 77
2023/06/17 07:03:07.866, 94, 101, 73
2023/06/17 07:03:09.003, 94, 104, 76
2023/06/17 07:03:10.122, 93, 103, 81
2023/06/17 07:03:11.258, 92, 102, 85
2023/06/17 07:03:12.378, 95, 100, 85
2023/06/17 07:03:13.514, 93, 95, 84
2023/06/17 07:03:14.634, 93, 96, 84
2023/06/17 07:03:15.770, 93, 101, 82
2023/06/17 07:03:16.906, 95, 103, 86
2023/06/17 07:03:18.026, 93, 97, 84
2023/06/17 07:03:19.162, 92, 96, 85
2023/06/17 07:03:20.282, 91, 99, 86
2023/06/17 07:03:21.418, 91, 101, 83
2023/06/17 07:03:22.537, 91, 98, 85
2023/06/17 07:03:23.674, 91, 98, 87
2023/06/17 07:03:24.794, 91, 99, 85
2023/06/17 07:03:25.930, 92, 99, 85
2023/06/17 07:03:27.049, 90, 101, 85
2023/06/17 07:03:28.185, 91, 98, 87
2023/06/17 07:03:29.305, 93, 95, 85
2023/06/17 07:03:30.441, 92, 99, 86
2023/06/17 07:03:31.561, 92, 99, 85
2023/06/17 07:03:32.697, 92, 96, 85
2023/06/17 07:03:33.817, 91, 93, 82
2023/06/17 07:03:34.953, 91, 99, 81
2023/06/17 07:03:36.073, 93, 96, 86
2023/06/17 07:03:37.209, 97, 95, 82
2023/06/17 07:03:38.329, 92, 100, 86
2023/06/17 07:03:39.465, 93, 101, 82
2023/06/17 07:03:40.601, 90, 98, 105
2023/06/17 07:03:41.721, 92, 96, 81
2023/06/17 07:03:42.856, 94, 98, 74
2023/06/17 07:03:43.977, 90, 94, 73
2023/06/17 07:03:45.112, 88, 94, 72
2023/06/17 07:03:46.232, 94, 93, 74
2023/06/17 07:03:47.368, 92, 99, 73
2023/06/17 07:03:48.488, 91, 96, 73
2023/06/17 07:03:49.624, 94, 98, 73
2023/06/17 07:03:50.744, 93, 100, 73
2023/06/17 07:03:51.880, 89, 98, 72
2023/06/17 07:03:52.000, 89, 100, 75
2023/06/17 07:03:54.136, 92, 97, 73
2023/06/17 07:03:55.255, 93, 94, 73
2023/06/17 07:03:56.392, 91, 93, 70
2023/06/17 07:03:57.528, 92, 99, 71
2023/06/17 07:03:58.648, 93, 96, 74
2023/06/17 07:03:59.783, 91, 111, 72
2023/06/17 07:04:00.903, 90, 99, 71
2023/06/17 07:04:02.039, 88, 94, 76
2023/06/17 07:04:03.159, 94, 99, 74
2023/06/17 07:04:04.295, 92, 96, 68
2023/06/17 07:04:05.415, 88, 94, 74
2023/06/17 07:04:06.551, 89, 96, 70
2023/06/17 07:04:07.670, 91, 100, 71
2023/06/17 07:04:08.807, 91, 100, 72
2023/06/17 07:04:09.927, 91, 95, 72
2023/06/17 07:04:11.063, 90, 94, 73
2023/06/17 07:04:12.183, 90, 95, 69
2023/06/17 07:04:13.319, 93, 94, 72
2023/06/17 07:04:14.454, 89, 93, 70
2023/06/17 07:04:15.574, 91, 91, 72
2023/06/17 07:04:16.710, 89, 94, 73
2023/06/17 07:04:17.830, 90, 97, 71
2023/06/17 07:04:18.966, 88, 93, 71
2023/06/17 07:04:20.085, 93, 96, 72
2023/06/17 07:04:21.222, 91, 97, 73
2023/06/17 07:04:22.342, 86, 97, 69
2023/06/17 07:04:23.478, 90, 101, 71
2023/06/17 07:04:24.597, 91, 99, 73
2023/06/17 07:04:25.734, 88, 100, 72
2023/06/17 07:04:26.853, 87, 95, 72
2023/06/17 07:04:27.990, 90, 98, 71
2023/06/17 07:04:29.110, 89, 96, 69
2023/06/17 07:04:30.245, 88, 95, 74
2023/06/17 07:04:31.365, 85, 101, 72
2023/06/17 07:04:32.501, 91, 98, 69
2023/06/17 07:04:33.621, 92, 99, 70
2023/06/17 07:04:34.757, 94, 92, 68
2023/06/17 07:04:35.877, 91, 95, 73
2023/06/17 07:04:37.013, 88, 95, 72
2023/06/17 07:04:38.149, 92, 94, 74
2023/06/17 07:04:39.269, 93, 92, 68
2023/06/17 07:04:40.405, 91, 97, 71
2023/06/17 07:04:41.525, 90, 94, 69
2023/06/17 07:04:42.661, 90, 94, 73
2023/06/17 07:04:43.781, 91, 95, 71
2023/06/17 07:04:44.917, 93, 96, 72
2023/06/17 07:04:46.037, 89, 100, 68
2023/06/17 07:04:47.173, 90, 95, 73
2023/06/17 07:04:48.292, 90, 95, 71
2023/06/17 07:04:49.428, 92, 99, 69
2023/06/17 07:04:50.548, 90, 94, 70
2023/06/17 07:04:51.684, 88, 102, 69
2023/06/17 07:04:52.804, 91, 96, 69
2023/06/17 07:04:53.940, 89, 95, 73
2023/06/17 07:04:55.076, 93, 100, 73
2023/06/17 07:04:56.196, 91, 99, 71
2023/06/17 07:04:57.332, 92, 93, 72
2023/06/17 07:04:58.452, 92, 96, 68
2023/06/17 07:04:59.588, 91, 103, 71
2023/06/17 07:05:00.708, 91, 95, 72
2023/06/17 07:05:01.843, 91, 88, 72
2023/06/17 07:05:02.964, 90, 94, 74
2023/06/17 07:05:04.099, 91, 93, 70
2023/06/17 07:05:05.219, 89, 94, 72
2023/06/17 07:05:06.355, 87, 97, 73
2023/06/17 07:05:07.475, 89, 98, 72
2023/06/17 07:05:08.611, 89, 97, 73
2023/06/17 07:05:09.731, 88, 94, 72
2023/06/17 07:05:10.867, 92, 95, 70
2023/06/17 07:05:11.987, 89, 94, 68
2023/06/17 07:05:13.123, 87, 93, 67
2023/06/17 07:05:14.243, 93, 92, 69
2023/06/17 07:05:15.379, 91, 95, 71
2023/06/17 07:05:16.499, 88, 92, 70
2023/06/17 07:05:17.635, 91, 89, 66
2023/06/17 07:05:18.771, 92, 93, 70
2023/06/17 07:05:19.890, 87, 95, 69
2023/06/17 07:05:21.026, 91, 95, 70
2023/06/17 07:05:22.146, 90, 92, 69
2023/06/17 07:05:23.282, 88, 93, 67
2023/06/17 07:05:24.402, 89, 93, 73
2023/06/17 07:05:25.538, 90, 96, 71
2023/06/17 07:05:26.658, 89, 102, 72
2023/06/17 07:05:27.794, 105, 100, 77
2023/06/17 07:05:28.914, 91, 100, 69
2023/06/17 07:05:30.050, 91, 94, 68
2023/06/17 07:05:31.170, 90, 92, 73
2023/06/17 07:05:32.306, 90, 95, 78
2023/06/17 07:05:33.426, 87, 89, 74
2023/06/17 07:05:34.562, 91, 88, 68
2023/06/17 07:05:35.682, 91, 93, 68
2023/06/17 07:05:36.817, 94, 92, 70
2023/06/17 07:05:37.937, 91, 92, 71
2023/06/17 07:05:39.073, 93, 92, 71
2023/06/17 07:05:40.209, 95, 92, 69
2023/06/17 07:05:41.329, 90, 97, 80
2023/06/17 07:05:42.465, 89, 95, 75
2023/06/17 07:05:43.585, 90, 94, 70
2023/06/17 07:05:44.721, 88, 94, 68
2023/06/17 07:05:45.841, 93, 89, 68
2023/06/17 07:05:46.977, 88, 92, 69
2023/06/17 07:05:48.097, 89, 94, 70
2023/06/17 07:05:49.233, 90, 93, 74
2023/06/17 07:05:50.352, 90, 95, 69
2023/06/17 07:05:51.489, 88, 97, 71
2023/06/17 07:05:52.608, 89, 89, 71
2023/06/17 07:05:53.744, 91, 89, 70
2023/06/17 07:05:54.864, 93, 91, 72
2023/06/17 07:05:56.000, 88, 94, 72
2023/06/17 07:05:57.120, 89, 98, 71
2023/06/17 07:05:58.256, 89, 92, 71
2023/06/17 07:05:59.376, 85, 96, 70
2023/06/17 07:06:00.512, 89, 97, 70
2023/06/17 07:06:01.632, 90, 93, 68
2023/06/17 07:06:02.768, 87, 93, 69
2023/06/17 07:06:03.904, 91, 93, 67
2023/06/17 07:06:05.024, 92, 93, 74
2023/06/17 07:06:06.160, 88, 88, 68
2023/06/17 07:06:07.280, 91, 91, 71
2023/06/17 07:06:08.415, 86, 91, 70
2023/06/17 07:06:09.535, 88, 90, 72
2023/06/17 07:06:10.671, 89, 95, 69
2023/06/17 07:06:11.791, 87, 92, 70
2023/06/17 07:06:12.927, 89, 92, 70
2023/06/17 07:06:14.047, 90, 95, 72
2023/06/17 07:06:15.183, 88, 94, 70
2023/06/17 07:06:16.302, 88, 93, 72
2023/06/17 07:06:17.439, 93, 92, 74
2023/06/17 07:06:18.559, 90, 97, 67
2023/06/17 07:06:19.695, 92, 90, 69
2023/06/17 07:06:20.815, 88, 92, 70
2023/06/17 07:06:21.951, 88, 90, 71
2023/06/17 07:06:23.070, 90, 92, 67
2023/06/17 07:06:24.207, 89, 93, 72
2023/06/17 07:06:25.326, 91, 89, 67
2023/06/17 07:06:26.462, 90, 90, 70
2023/06/17 07:06:27.582, 90, 93, 70
2023/06/17 07:06:28.718, 89, 89, 69
2023/06/17 07:06:29.838, 88, 94, 70
2023/06/17 07:06:30.974, 91, 92, 71
2023/06/17 07:06:32.094, 91, 92, 73
2023/06/17 07:06:33.230, 88, 94, 70
2023/06/17 07:06:34.350, 90, 91, 70
2023/06/17 07:06:35.486, 88, 92, 68
2023/06/17 07:06:36.621, 91, 91, 69
2023/06/17 07:06:37.742, 85, 92, 69
2023/06/17 07:06:38.877, 88, 94, 69
2023/06/17 07:06:39.998, 88, 94, 71
2023/06/17 07:06:41.133, 91, 93, 70
2023/06/17 07:06:42.253, 89, 91, 69
2023/06/17 07:06:43.389, 89, 94, 72
2023/06/17 07:06:44.510, 88, 93, 68
2023/06/17 07:06:45.645, 91, 90, 67
2023/06/17 07:06:46.765, 90, 94, 70
2023/06/17 07:06:47.901, 87, 91, 67
2023/06/17 07:06:49.021, 90, 93, 71
2023/06/17 07:06:50.156, 88, 94, 71
2023/06/17 07:06:51.277, 90, 92, 72
2023/06/17 07:06:52.413, 86, 90, 68
2023/06/17 07:06:53.533, 87, 87, 68
2023/06/17 07:06:54.669, 87, 90, 70
2023/06/17 07:06:55.789, 86, 94, 71
2023/06/17 07:06:56.924, 91, 102, 70
2023/06/17 07:06:58.060, 91, 102, 70
2023/06/17 07:06:59.180, 91, 93, 67
2023/06/17 07:07:00.316, 89, 90, 72
2023/06/17 07:07:01.436, 89, 89, 71
2023/06/17 07:07:02.572, 90, 94, 70
2023/06/17 07:07:03.692, 89, 95, 72
2023/06/17 07:07:04.828, 87, 93, 72
2023/06/17 07:07:05.948, 91, 93, 68
2023/06/17 07:07:07.084, 88, 95, 72
2023/06/17 07:07:08.203, 87, 94, 69
2023/06/17 07:07:09.340, 90, 89, 68
2023/06/17 07:07:10.460, 90, 93, 65
2023/06/17 07:07:11.596, 90, 88, 69
2023/06/17 07:07:12.715, 90, 92, 71
2023/06/17 07:07:13.851, 89, 89, 71
2023/06/17 07:07:14.971, 88, 90, 71
2023/06/17 07:07:16.107, 90, 90, 68
2023/06/17 07:07:17.227, 90, 89, 69
2023/06/17 07:07:18.363, 91, 90, 71
2023/06/17 07:07:19.483, 89, 90, 70
2023/06/17 07:07:20.619, 87, 90, 70
2023/06/17 07:07:21.739, 90, 92, 67
2023/06/17 07:07:22.875, 88, 91, 69
2023/06/17 07:07:24.011, 91, 89, 69
2023/06/17 07:07:25.131, 89, 93, 69
2023/06/17 07:07:26.266, 91, 93, 72
2023/06/17 07:07:27.387, 89, 94, 69
2023/06/17 07:07:28.523, 88, 87, 65
2023/06/17 07:07:29.642, 90, 96, 71
2023/06/17 07:07:30.778, 90, 98, 68
2023/06/17 07:07:31.898, 89, 89, 67
2023/06/17 07:07:33.034, 87, 90, 70
2023/06/17 07:07:34.154, 88, 92, 70
2023/06/17 07:07:35.290, 87, 94, 71
2023/06/17 07:07:36.410, 88, 101, 69
2023/06/17 07:07:37.546, 88, 94, 69
2023/06/17 07:07:38.666, 90, 95, 70
2023/06/17 07:07:39.801, 87, 99, 70
2023/06/17 07:07:40.922, 87, 93, 70
2023/06/17 07:07:42.058, 90, 91, 66
2023/06/17 07:07:43.178, 89, 97, 66
2023/06/17 07:07:44.313, 88, 101, 68
2023/06/17 07:07:45.434, 90, 95, 70
2023/06/17 07:07:46.569, 90, 92, 70
2023/06/17 07:07:47.689, 91, 92, 68
2023/06/17 07:07:48.824, 92, 92, 72
2023/06/17 07:07:49.945, 91, 91, 70
2023/06/17 07:07:51.081, 86, 96, 68
2023/06/17 07:07:52.217, 92, 92, 67
2023/06/17 07:07:53.336, 89, 91, 68
2023/06/17 07:07:54.472, 88, 93, 71
2023/06/17 07:07:55.593, 89, 93, 72
2023/06/17 07:07:56.729, 89, 95, 70
2023/06/17 07:07:57.849, 90, 93, 70
2023/06/17 07:07:58.985, 90, 90, 71
2023/06/17 07:08:00.105, 92, 92, 73
2023/06/17 07:08:01.241, 92, 91, 71
2023/06/17 07:08:02.360, 89, 91, 70
2023/06/17 07:08:03.496, 90, 98, 67
2023/06/17 07:08:04.616, 89, 91, 67
2023/06/17 07:08:05.752, 89, 91, 70
2023/06/17 07:08:06.872, 89, 101, 70
2023/06/17 07:08:08.008, 90, 94, 67
2023/06/17 07:08:09.128, 88, 91, 74
2023/06/17 07:08:10.263, 88, 93, 70
2023/06/17 07:08:11.384, 85, 93, 72
2023/06/17 07:08:12.520, 90, 94, 70
2023/06/17 07:08:13.640, 88, 94, 73
2023/06/17 07:08:14.776, 92, 93, 70
2023/06/17 07:08:15.911, 90, 92, 67
2023/06/17 07:08:17.032, 90, 94, 70
2023/06/17 07:08:18.167, 89, 89, 68
2023/06/17 07:08:19.287, 89, 90, 69
2023/06/17 07:08:20.423, 89, 92, 72
2023/06/17 07:08:21.543, 86, 94, 66
2023/06/17 07:08:22.679, 94, 92, 68
2023/06/17 07:08:23.799, 89, 88, 71
2023/06/17 07:08:24.934, 89, 96, 66
2023/06/17 07:08:26.055, 89, 95, 70
2023/06/17 07:08:27.191, 90, 96, 73
2023/06/17 07:08:28.311, 90, 92, 68
2023/06/17 07:08:29.447, 89, 88, 72
2023/06/17 07:08:30.567, 90, 90, 71
2023/06/17 07:08:31.703, 90, 92, 69
2023/06/17 07:08:32.823, 87, 89, 72
2023/06/17 07:08:33.958, 87, 92, 67
2023/06/17 07:08:35.079, 89, 93, 69
2023/06/17 07:08:36.214, 89, 91, 67
2023/06/17 07:08:37.334, 90, 96, 71
2023/06/17 07:08:38.469, 88, 92, 70
2023/06/17 07:08:39.590, 90, 95, 70
2023/06/17 07:08:40.726, 87, 89, 70
2023/06/17 07:08:41.846, 88, 97, 69
2023/06/17 07:08:42.982, 91, 92, 72
2023/06/17 07:08:44.102, 90, 90, 69
2023/06/17 07:08:45.238, 93, 92, 72
2023/06/17 07:08:46.357, 90, 93, 69
2023/06/17 07:08:47.494, 88, 92, 74
2023/06/17 07:08:48.629, 88, 89, 70
2023/06/17 07:08:49.750, 90, 90, 70
2023/06/17 07:08:50.885, 87, 92, 65
2023/06/17 07:08:52.005, 90, 92, 68
2023/06/17 07:08:53.141, 88, 90, 72
2023/06/17 07:08:54.261, 90, 90, 70
2023/06/17 07:08:55.397, 91, 93, 70
2023/06/17 07:08:56.516, 89, 94, 68
2023/06/17 07:08:57.653, 91, 92, 69
2023/06/17 07:08:58.772, 89, 88, 71
2023/06/17 07:08:59.908, 89, 93, 71
2023/06/17 07:09:01.028, 87, 90, 69
2023/06/17 07:09:02.165, 87, 92, 71
2023/06/17 07:09:03.284, 87, 93, 70
2023/06/17 07:09:04.421, 86, 96, 68
2023/06/17 07:09:05.541, 89, 100, 70
2023/06/17 07:09:06.676, 87, 101, 67
2023/06/17 07:09:07.796, 89, 95, 69
2023/06/17 07:09:08.932, 89, 93, 69
2023/06/17 07:09:10.068, 92, 90, 70
2023/06/17 07:09:11.188, 88, 95, 67
2023/06/17 07:09:12.324, 90, 92, 71
2023/06/17 07:09:13.444, 89, 89, 69
2023/06/17 07:09:14.580, 90, 94, 68
2023/06/17 07:09:15.700, 88, 93, 67
2023/06/17 07:09:16.836, 89, 94, 67
2023/06/17 07:09:17.956, 88, 88, 70
2023/06/17 07:09:19.091, 88, 87, 69
2023/06/17 07:09:20.211, 89, 95, 68
2023/06/17 07:09:21.347, 91, 95, 69
2023/06/17 07:09:22.467, 92, 97, 71
2023/06/17 07:09:23.603, 90, 92, 70
2023/06/17 07:09:24.723, 89, 95, 66
2023/06/17 07:09:25.859, 89, 95, 67
2023/06/17 07:09:26.979, 90, 91, 69
2023/06/17 07:09:28.115, 91, 91, 72
2023/06/17 07:09:29.235, 88, 90, 70
2023/06/17 07:09:30.370, 89, 90, 71
2023/06/17 07:09:31.491, 89, 93, 72
2023/06/17 07:09:32.627, 88, 92, 72
2023/06/17 07:09:33.747, 88, 97, 72
2023/06/17 07:09:34.883, 89, 96, 68
2023/06/17 07:09:36.003, 89, 94, 71
2023/06/17 07:09:37.138, 90, 90, 73
2023/06/17 07:09:38.258, 89, 92, 73
2023/06/17 07:09:39.394, 88, 91, 73
2023/06/17 07:09:40.514, 89, 90, 73
2023/06/17 07:09:41.650, 91, 88, 73
2023/06/17 07:09:42.786, 90, 92, 71
2023/06/17 07:09:43.906, 90, 91, 72
2023/06/17 07:09:45.042, 89, 91, 71
2023/06/17 07:09:46.162, 88, 90, 68
2023/06/17 07:09:47.298, 90, 95, 70
2023/06/17 07:09:48.418, 87, 97, 70
2023/06/17 07:09:49.554, 86, 90, 67
2023/06/17 07:09:50.674, 91, 91, 69
2023/06/17 07:09:51.809, 90, 91, 70
2023/06/17 07:09:52.929, 91, 93, 74
2023/06/17 07:09:54.065, 89, 88, 71
2023/06/17 07:09:55.185, 89, 91, 72
2023/06/17 07:09:56.321, 90, 92, 74
2023/06/17 07:09:57.441, 88, 97, 71
2023/06/17 07:09:58.577, 90, 102, 74
2023/06/17 07:09:59.696, 92, 97, 71
2023/06/17 07:10:00.833, 87, 95, 69
2023/06/17 07:10:01.953, 90, 91, 72
2023/06/17 07:10:03.089, 89, 94, 72
2023/06/17 07:10:04.209, 92, 91, 73
2023/06/17 07:10:05.345, 91, 93, 74
2023/06/17 07:10:06.481, 89, 94, 75
2023/06/17 07:10:07.601, 90, 95, 71
2023/06/17 07:10:08.736, 90, 94, 69
2023/06/17 07:10:09.856, 93, 97, 70
2023/06/17 07:10:10.992, 92, 96, 72
2023/06/17 07:10:12.112, 94, 95, 71
2023/06/17 07:10:13.248, 90, 93, 68
2023/06/17 07:10:14.368, 91, 92, 67
2023/06/17 07:10:15.504, 91, 92, 68
2023/06/17 07:10:16.624, 89, 99, 72
2023/06/17 07:10:17.760, 93, 97, 71
2023/06/17 07:10:18.880, 92, 97, 75
2023/06/17 07:10:20.016, 93, 98, 73
2023/06/17 07:10:21.136, 93, 107, 75
2023/06/17 07:10:22.271, 96, 102, 75
2023/06/17 07:10:23.408, 92, 104, 73
2023/06/17 07:10:24.528, 96, 104, 75
2023/06/17 07:10:25.664, 92, 107, 80
2023/06/17 07:10:26.783, 99, 100, 77
2023/06/17 07:10:27.920, 104, 108, 78
2023/06/17 07:10:29.039, 95, 102, 79
2023/06/17 07:10:30.175, 97, 104, 76
2023/06/17 07:10:31.295, 97, 104, 77
2023/06/17 07:10:32.430, 96, 126, 77
2023/06/17 07:10:33.566, 99, 115, 77
2023/06/17 07:10:34.687, 97, 107, 80
2023/06/17 07:10:35.823, 98, 109, 86
2023/06/17 07:10:36.943, 97, 112, 82
2023/06/17 07:10:38.078, 97, 115, 76
2023/06/17 07:10:39.214, 108, 153, 80
2023/06/17 07:10:40.334, 101, 111, 82
2023/06/17 07:10:41.471, 109, 106, 82
2023/06/17 07:10:42.590, 106, 103, 78
2023/06/17 07:10:43.726, 103, 119, 83
2023/06/17 07:10:44.862, 99, 114, 79
2023/06/17 07:10:45.982, 100, 115, 87
2023/06/17 07:10:47.118, 101, 114, 82
2023/06/17 07:10:48.238, 106, 116, 83
2023/06/17 07:10:49.374, 104, 115, 82
2023/06/17 07:10:50.510, 98, 115, 108
2023/06/17 07:10:51.630, 104, 118, 81
2023/06/17 07:10:52.766, 101, 110, 80
2023/06/17 07:10:53.902, 102, 118, 80
2023/06/17 07:10:55.022, 103, 115, 80
2023/06/17 07:10:56.158, 107, 114, 86
2023/06/17 07:10:57.278, 101, 115, 84
2023/06/17 07:10:58.413, 103, 117, 84
2023/06/17 07:10:59.549, 103, 113, 84
2023/06/17 07:11:00.669, 102, 116, 87
2023/06/17 07:11:01.805, 103, 124, 88
2023/06/17 07:11:02.941, 102, 116, 85
2023/06/17 07:11:04.061, 105, 125, 83
2023/06/17 07:11:05.196, 101, 122, 81
2023/06/17 07:11:06.317, 104, 123, 85
2023/06/17 07:11:07.453, 104, 120, 89
2023/06/17 07:11:08.589, 105, 116, 85
2023/06/17 07:11:09.709, 99, 129, 84
2023/06/17 07:11:10.845, 105, 126, 87
2023/06/17 07:11:11.964, 107, 125, 87
2023/06/17 07:11:13.101, 107, 122, 91
2023/06/17 07:11:14.237, 103, 117, 88
2023/06/17 07:11:15.356, 105, 128, 85
2023/06/17 07:11:16.492, 112, 118, 87
2023/06/17 07:11:17.628, 110, 126, 86
2023/06/17 07:11:18.748, 107, 124, 84
2023/06/17 07:11:19.884, 107, 129, 88
2023/06/17 07:11:21.004, 104, 138, 86
2023/06/17 07:11:22.140, 112, 122, 93
2023/06/17 07:11:23.276, 103, 127, 85
2023/06/17 07:11:24.396, 105, 125, 85
2023/06/17 07:11:25.532, 105, 132, 88
2023/06/17 07:11:26.668, 116, 122, 91
2023/06/17 07:11:27.788, 110, 124, 91
2023/06/17 07:11:28.923, 106, 129, 90
2023/06/17 07:11:30.044, 109, 138, 91
2023/06/17 07:11:31.179, 106, 137, 90
2023/06/17 07:11:32.315, 108, 121, 94
2023/06/17 07:11:33.435, 107, 124, 101
2023/06/17 07:11:34.571, 110, 130, 104
2023/06/17 07:11:35.707, 108, 129, 91
2023/06/17 07:11:36.827, 108, 125, 90
2023/06/17 07:11:37.963, 111, 133, 97
2023/06/17 07:11:39.083, 106, 132, 96
2023/06/17 07:11:40.219, 109, 129, 101
2023/06/17 07:11:41.355, 110, 128, 112
2023/06/17 07:11:42.475, 110, 127, 94
2023/06/17 07:11:43.611, 105, 130, 92
2023/06/17 07:11:44.747, 108, 127, 91
2023/06/17 07:11:45.867, 113, 125, 89
2023/06/17 07:11:47.002, 108, 127, 101
2023/06/17 07:11:48.138, 121, 131, 91
2023/06/17 07:11:49.258, 106, 133, 100
2023/06/17 07:11:50.394, 120, 136, 89
2023/06/17 07:11:51.514, 107, 130, 95
2023/06/17 07:11:52.650, 114, 122, 90
2023/06/17 07:11:53.786, 112, 131, 96
2023/06/17 07:11:54.906, 117, 128, 93
2023/06/17 07:11:56.042, 111, 126, 99